Weather History for Middletown, PA

Change the Weather History Date:

Saturday, December 17, 2011

  Actual Average Record
Temperature  
Mean Temperature 36 °F 33 °F  
Max Temperature 40 °F 41 °F 59 °F (1939)
Min Temperature 32 °F 26 °F 0 °F (1951)
Degree Days  
Heating Degree Days 29 32  
Month to date heating degree days 427 500  
Since 1 July heating degree days 1328 1539  
Cooling Degree Days 0 0  
Month to date cooling degree days 0 0  
Year to date cooling degree days 1246 1002  
Moisture  
Dew Point 25 °F    
Average Humidity 66    
Maximum Humidity 82    
Minimum Humidity 50    
Precipitation  
Precipitation T in 0.09 in 1.69 in (2000)
Month to date precipitation 1.50 1.89  
Year to date precipitation 71.97 39.40  
Snow  
Snow T in - - ()
Month to date snowfall T  
Since 1 July snowfall 5.5  
Snow Depth 0.00 in    
Sea Level Pressure  
Sea Level Pressure 30.18 in    
Wind  
Wind Speed 9 mph (NW)    
Max Wind Speed 17 mph    
Max Gust Speed 22 mph    
Visibility 10 miles    
Events Snow    
T = Trace of Precipitation, MM = Missing Value Source: NWS Daily Summary

Daily Weather History Graph

Daily Weather History Graph

Search for Another Location

Airport:

Trip Planner

Search our weather history database for the weather conditions in past years. The results will help you decide how hot, cold, wet, or windy it might be!

Date:

Astronomy

Dec. 17, 2011 Rise Set
Actual Time 7:23 AM EST 4:42 PM EST
Civil Twilight 6:52 AM EST 5:13 PM EST
Nautical Twilight 6:18 AM EST 5:47 PM EST
Astronomical Twilight 5:45 AM EST 6:20 PM EST
Moon No Moon Rise 11:37 AM EST (12/17)
Length of Visible Light 10h 20m
Length of Day
9h 19m
Waning Gibbous, 54% of the Moon is Illuminated
Dec 17
Waning Gibbous
Dec 17
Last Quarter
Dec 24
New
Jan 1
First Quarter
Jan 9
Full

Hourly Weather History & Observations

Time (EST) Temp. Windchill Dew Point Humidity Pressure Visibility Wind Dir Wind Speed Gust Speed Precip Events Conditions
12:56 AM 32.0 °F 26.4 °F 23.0 °F 69% 30.18 in 10.0 mi NW 5.8 mph - N/A   Scattered Clouds
1:56 AM 35.1 °F 29.3 °F 25.0 °F 67% 30.17 in 10.0 mi WNW 6.9 mph - N/A   Overcast
2:56 AM 34.0 °F 28.0 °F 24.1 °F 67% 30.17 in 10.0 mi NW 6.9 mph - N/A   Mostly Cloudy
3:56 AM 36.0 °F 28.5 °F 24.1 °F 62% 30.18 in 10.0 mi WNW 10.4 mph - N/A   Overcast
4:56 AM 36.0 °F 27.5 °F 25.0 °F 64% 30.18 in 10.0 mi WNW 12.7 mph - N/A   Overcast
5:56 AM 36.0 °F 29.0 °F 24.1 °F 62% 30.17 in 10.0 mi WNW 9.2 mph - N/A   Overcast
6:56 AM 36.0 °F 29.0 °F 23.0 °F 59% 30.18 in 10.0 mi WNW 9.2 mph - N/A   Overcast
7:56 AM 36.0 °F 29.0 °F 24.1 °F 62% 30.19 in 10.0 mi WNW 9.2 mph - N/A   Overcast
8:56 AM 37.0 °F 28.9 °F 24.1 °F 59% 30.19 in 10.0 mi WNW 12.7 mph - N/A   Overcast
9:56 AM 37.9 °F 29.6 °F 24.1 °F 57% 30.19 in 10.0 mi WNW 13.8 mph - N/A   Overcast
10:56 AM 39.9 °F 32.1 °F 24.1 °F 53% 30.17 in 10.0 mi WNW 13.8 mph - N/A   Overcast
11:56 AM 39.0 °F 30.6 °F 24.1 °F 55% 30.16 in 10.0 mi WNW 15.0 mph - N/A   Overcast
12:56 PM 39.0 °F 31.8 °F 24.1 °F 55% 30.16 in 10.0 mi WNW 11.5 mph - N/A   Overcast
1:56 PM 39.9 °F 32.5 °F 23.0 °F 51% 30.13 in 10.0 mi NW 12.7 mph 18.4 mph N/A   Overcast
2:56 PM 37.9 °F 31.5 °F 24.1 °F 57% 30.14 in 9.0 mi WNW 9.2 mph 21.9 mph 0.00 in Snow Light Snow
3:56 PM 36.0 °F 27.5 °F 27.0 °F 70% 30.16 in 10.0 mi WNW 12.7 mph - 0.00 in   Overcast
4:56 PM 36.0 °F 29.6 °F 24.1 °F 62% 30.17 in 10.0 mi NW 8.1 mph - N/A   Overcast
5:56 PM 36.0 °F 27.1 °F 25.0 °F 64% 30.19 in 10.0 mi WNW 13.8 mph - 0.00 in Snow Light Snow
6:56 PM 34.0 °F 31.0 °F 28.0 °F 79% 30.20 in 9.0 mi NNE 3.5 mph - 0.00 in Snow Light Snow
7:05 PM 33.8 °F - 28.4 °F 81% 30.19 in 9.0 mi Calm Calm - 0.00 in Snow Light Snow
7:56 PM 33.1 °F 30.0 °F 28.0 °F 82% 30.20 in 9.0 mi North 3.5 mph - 0.00 in Snow Light Snow
8:47 PM 33.8 °F 29.6 °F 28.4 °F 81% 30.18 in 7.0 mi NNW 4.6 mph - 0.00 in Snow Light Snow
8:56 PM 33.1 °F 30.0 °F 28.0 °F 82% 30.19 in 8.0 mi NNW 3.5 mph - 0.00 in Snow Light Snow
9:42 PM 32.0 °F 28.7 °F 28.4 °F 87% 30.18 in 9.0 mi NW 3.5 mph - 0.00 in Snow Light Snow
9:56 PM 32.0 °F - 27.0 °F 82% 30.19 in 9.0 mi Calm Calm - 0.00 in Snow Light Snow
10:56 PM 32.0 °F 28.7 °F 26.1 °F 79% 30.19 in 9.0 mi NNW 3.5 mph - 0.00 in   Overcast
11:56 PM 32.0 °F - 26.1 °F 79% 30.19 in 10.0 mi Calm Calm - N/A   Overcast